Погода Готня

Погода Готня : погода сейчас, прогноз погоды и архив. Всё, что Вы хотите узнать о погоде Готня!

Поиск расширенной информации на нашем сайте:

Другие новости

Новости СМИ2

Главная страница сайта

Новости сайта

02.10.2013

Напоминаем, что на нашем новом сайте вы можете получить высокодетализированные прогнозы погоды по пунктам России, СНГ и мира (включающие важные для авиации метеовеличины, такие как направление и скорость ветра, видимость, явления погоды, количество и форма облачности, нижняя и верхняя граница облачности), а также ознакомиться с разнообразными материалами по авиационной метеорологии и подборкой полезных ссылок на эту тему.

Сайт Метеоцентр.Азия посвящён разработке технологий оптимизации авиаметеорологического обслуживания, включая проектирование и перспективное создание нескольких автоматизированных авиаметеорологических систем:
- система выпуска высокодетальных прогностических карт явлений погоды для нижнего воздушного пространства по России и ближнему зарубежью;
- система верификации прогнозов TAF (выпускаемых синоптиками официальных АМСГ РФ и ближнего зарубежья) и AUTOTAF (выпускаемых сайтом Метеоцентр.Азия) - выявление ошибок, онлайн-сопоставление с фактической погодой METAR, автоматическое внесение коррективов в прогнозы при резком отклонении фактической погоды от прогноза, подсчёт оправдываемости прогнозов по элементам и в целом;
- система обработки, анализа и отображения авиаметеорологической информации для применения провайдерами метеорологической информации.

Рекомендуем: Смотрите надежная летняя резина на продажу закажите.

Погода Готня - сегодня

Время (UTC), дата Ветер
(°,м/с) 
Видим.   Явления Облачность Т
(°С)
Тd
(°С)
f(%) Тe
(°С)
Pmin
(гПа)
dP
(гПа)
Po
(мм)
O2
(г/м3)
Тmin Tmax R s Состояние
почвы
09 18.01.17 040 (СВ) 20000 м    10/10 600 м 
[Sc]
-5.1 -6.5 90 -5  1038.9  0.8  757  312           
12 18.01.17 310 (СЗ) 20000 м    10/10 600 м 
[Sc]
-4.7 -6.4 88 -6  1038.3  -0.5  757  311           
15 18.01.17 330 (СЗ) 10 км    4/3 600 м 
[Sc]
-9.8 -11.5 87 -13  1039.7  0.7  757  318           
18 18.01.17 350 (С) 10 км    6/6 600 м 
[Sc]
-9.6 -11.2 88 -13  1040.4  0.8  758  318    -4       
21 18.01.17 340 (С) 10 км    ясно 
-12.4 -14.4 85 -14  1040.5  -0.2  758  321           
00 19.01.17 330 (СЗ) 10 км    4/0 средняя 
[Ac und]
-12.2 -14.2 85 -14  1040.3  -0.2  758  321           
03 19.01.17 310 (СЗ) 10 км    10/0 средняя 
[Ac und]
-8.2 -10.1 86 -10  1039.2  -0.6  757  316  -13.6         
06 19.01.17 300 (СЗ) 20000 м    6/0 средняя 
[Ac und]
-9.8 -12.4 81 -12  1039.1  -0.4  757  317  -13.6      44  равномерный
мокрый или
старый снег
100% 
09 19.01.17 310 (СЗ) 1000 м  дымка  10/10 300 м 
[St]
-10.5 -11.1 95 -14  1039.2  0.1  757  318           
12 19.01.17 330 (СЗ) 20000 м    6/0 средняя 
[Ac trans]
-11.4 -12.7 90 -13  1037.7  -1.5  756  319           
15 19.01.17 230 (ЮЗ) 10 км    4/0 средняя 
[Ac lent]
-14.5 -16.5 85 -15  1036.8  -1.2  755  323           
18 19.01.17 220 (ЮЗ) 10 км    10/10 300 м 
[St]
-14 -15.3 90 -16  1035.4  -1.4  754  322    -9.8       
21 19.01.17 250 (З) 10 км    10/10 300 м 
[St]
-13.4 -14.7 90 -17  1033.5  -1.7  753  320           
00 20.01.17 260 (З) 10 км    10/10 600 м 
[Sc]
-9.5 -10.7 91 -14  1031  -2  751  315           
03 20.01.17 250 (З) 5{10}  10 км    10/10 600 м 
[Sc]
-8.6 -9.7 92 -13  1027.9  -2.9  749  313  -14         
06 20.01.17 250 (З) 20000 м    10/10 300 м 
[St]
-7.6 -8.9 90 -12  1025.8  -2  747  311  -14      44  равномерный
мокрый или
старый снег
100% 
09 20.01.17 270 (З) 4000 м  дымка  10/10 300 м 
[St]
-7.2 -8.1 93 -11  1025.4  -0.3  747  310           
12 20.01.17 280 (З) 4000 м  дымка  10/10 300 м 
[St]
-5.9 -6.6 95 -8  1023.9  -1.4  746  308           
15 20.01.17 280 (З) 4000 м  дымка  10/10 300 м 
[St]
-5.3 -6.3 93 -9  1023.6  -0.2  746  307           
18 20.01.17 280 (З) 10 км    10/10 300 м 
[St]
-4.6 -5.9 91 -8  1023.4  -0.1  746  306    -4.6       
21 20.01.17 260 (З) 10 км    10/10 300 м 
[St]
-4.5 -5.8 91 -8  1022.8  -0.6  745  306           
00 21.01.17 260 (З) 10 км    10/10 300 м 
[St]
-4.2 -5.4 91 -8  1021.7  -1  745  305           
03 21.01.17 260 (З) 10 км  слаб. снег  10/10 300 м 
[Frnb|Ns]
-4.1 -5.3 91 -8  1020.1  -1.6  743  305  -4.6    0.2     
06 21.01.17 270 (З) 4000 м  слаб. снег  10/10 300 м 
[Frnb|Ns]
-3.7 -4.8 92 -7  1019.5  -0.5  743  304  -4.6    0.5  44  равномерный
сухой снег
100% 
09 21.01.17 270 (З) 6-10{10}  4000 м  слаб. снег  10/10 300 м 
[Frnb|Ns]
-2.9 -4.2 91 -7  1018.6  -0.7  743  303           
Время (UTC), дата Ветер
(°,м/с) 
Видим.   Явления Облачность Т
(°С)
Тd
(°С)
f(%) Тe
(°С)
Pmin
(гПа)
dP
(гПа)
Po
(мм)
O2
(г/м3)
Тmin Tmax R s Состояние
почвы

Для получения пояснительной информации подведите курсор к названию столбца.

ПОГОДА Готня - архив

Всё, что Вы хотите узнать о погоде Готня - удобно и подробно!

Выберите нужную дату (начиная с 1 января 2015* года) и нажмите кнопку "Найти".
Будут отображены архивные сводки погоды по пункту Готня, начиная с указанной даты.


Отображать данные в формате CSV (для использования в таблицах Excel)


Внимание! Наш архив погоды предназначен исключительно для личного некоммерческого использования в познавательных целях. Если Вам необходимы официальные справки о состоянии погоды (для производственных, юридических, коммерческих и т.п. целей), обращайтесь в органы Росгидромета.

*Примечание: данная дата относится к архиву по метеостанциям СССР (Россия, СНГ, Балтия).
Архив по метеостанциям Зарубежной Европы и Азии (кроме Китая) хранится 10 дней, по другим регионам земного шара (Китай, Африка, Америка, Австралия, Океания) - 1 день.

Готня - район местоположения метеостанции


Название, широта, долгота, высота метеостанции:
Готня 50.8°ш. 35.8°д. 226 м над ур. моря [Российская Федерация]

Дополнительная информация

В oтличие oт бoльшинства пoгoдных сайтoв мы публикуем пoдрoбную метеoинфoрмацию в детальнoм прoфессиoнальнoм фoрмате.

Характеристики температуры и влажнoсти вoздуха измеряются на высoте 2 м в тени вдали oт зданий и деревьев.
Скoрoсть ветра измеряется на высoте 10 м (на урoвне рoста челoвека скoрoсть ветра ниже в 1.5-2 раза). Если метеoстанция нахoдится в гoрoде или в лесу, тo скoрoсть ветра занижена на 2-4 м/с пo сравнению с oткрытым местoм. Скoрoсть ветра над акватoриями крупных рек и oзёр, а также на вершинах хoлмoв на 2-5 м/с выше, чем в oбычных услoвиях.
Атмoсфернoе давление в разных тoчках местнoсти мoжет значительнo oтличаться oт давления на метеoстанции, в зависимoсти oт услoвий рельефа (при пoдъёме на 10 м давление пoнижается примернo на 1 мм рт.ст.).